{"data":{"norad_id":59298,"intl_designator":"2024-056C","name":"STARLINK-31386","alt_names":[],"object_type":"PAYLOAD","status":"ACTIVE","operator":null,"country":"US","launch_date":"2024-03-24","launch_site_code":"AFETR","launch_vehicle":null,"mission":null,"orbit_class":"UNKNOWN","rcs_meters":null,"size_class":null,"mass_kg":null,"dimensions":null,"purposes":["comms"],"wikipedia_slug":null,"has_3d_model":false,"image_url":null,"decayed_at":null,"tle_current":{"epoch":"2026-09-21T04:31:57.012384Z","epoch_age_seconds":102818,"freshness":"FRESH","line1":"1 59298U 24056C   26264.18885431  .00000558  00000+0  29810-4 0  9999","line2":"2 59298  43.0015 206.6126 0001282 267.0970  92.9735 15.27580082141059","mean_motion":15.27580082,"eccentricity":0.0001282,"inclination_deg":43.0015,"raan_deg":206.6126,"arg_perigee_deg":267.097,"mean_anomaly_deg":92.9735,"bstar":2.981e-5,"rev_number":14105,"period_min":94.266743653443,"perigee_km":482.16924647613,"apogee_km":483.9284545282,"semimajor_km":6861.1858505022,"source":"CELESTRAK","updated_at":"2026-09-22T09:00:48.875191Z"}}}